Regional Weather Roundup
Issued by NWS Goodland, KS

Home | Current Version | Previous Version | Text Only | Print | Product List | Glossary On
Versions: 1 2 3 4 5 6 7 8 9 10 11 12 13 14 15 16 17 18 19 20 21 22 23 24 25 26 27 28 29 30 31 32 33 34 35 36 37 38 39 40 41 42 43 44 45 46 47 48 49 50
000
ASUS43 KGLD 251908
RWRGLD

GOODLAND FORECAST AREA HOURLY WEATHER ROUNDUP
NATIONAL WEATHER SERVICE GOODLAND KS
100 PM MDT SUN SEP 25 2016

...OFFICIAL OBSERVATIONS...

CITY           SKY/WX    TMP DP  RH WIND       PRES   REMARKS
GOODLAND KS    SUNNY     70  35  27 NW18G28   30.34F
HILL CITY KS   SUNNY     73  41  31 N15G22    30.28F
IMPERIAL NEB   MOSUNNY   69  32  25 N20G31    30.33F
MCCOOK NEB     SUNNY     73  33  23 N23G31    30.28F
AKRON CO       SUNNY     64  29  26 N14G26    30.40F
BURLINGTON CO  SUNNY     66  30  26 N17G28    30.37F
LIMON CO       SUNNY     62  29  28 N15G23    30.43F
$$

...UNOFFICIAL OBSERVATIONS...

CITY           SKY/WX    TMP DP  RH WIND       PRES   REMARKS
COLBY KS       SUNNY     72  39  30 N20G28    30.32F
LENORA KS        N/A     71  32  23 MISG        N/A
NORTON KS      SUNNY     73  28  19 NW22G31   30.26F
SHARON SPRINGS   N/A     70  35  27 NW13G20     N/A
KIT CARSON CO    N/A     65  33  30 MISG        N/A
$$



USA.gov is the U.S. government's official web portal to all federal, state and local government web resources and services.